Skip Page Navigation
NASA JPL Caltech
NASA Logo - Jet Propulsion Laboratory + View the NASA Portal
+ Center for Near-Earth Object Studies
JPL Home Earth Solar System Stars & Galaxies Technology
JPL Solar System Dynamics
BODIES ORBITS EPHEMERIDES TOOLS PHYSICAL DATA DISCOVERY FAQ SITE MAP
IMPORTANT: The SSD Announcement email list is now available. Major changes are coming in the near future, including possible hostname and/or URL changes. To be notified of such changes, subscribe to this email list.

Please visit this page for more details.


JPL Small-Body Database Browser
Search: [ help ]  
32109 (2000 KQ70)
Classification: Main-belt Asteroid          SPK-ID: 2032109
Ephemeris | Orbit Diagram | Orbital Elements | Mission Design | Physical Parameters | Discovery Circumstances ]

[ show orbit diagram ]
Orbital Elements at Epoch 2458600.5 (2019-Apr-27.0) TDB
Reference: JPL 19 (heliocentric ecliptic J2000)
 Element Value Uncertainty (1-sigma)   Units 
e .1723692852643709 6.0604e-08  
a 2.420943763272174 1.4538e-08 au
q 2.003647417131713 1.4191e-07 au
i 4.517243072620336 6.2081e-06 deg
node 353.6320873055095 5.8115e-05 deg
peri 209.6224404197526 5.9852e-05 deg
M 30.99544295828532 1.2941e-05 deg
tp 2458482.040246334158
(2018-Dec-29.54024633)
4.9261e-05 TDB
period 1375.863909320378
3.77
1.2393e-05
3.393e-08
d
yr
n .2616537853499084 2.3569e-09 deg/d
Q 2.838240109412635 1.7044e-08 au
  Orbit Determination Parameters
   # obs. used (total)      605  
   data-arc span      15325 days (41.96 yr)  
   first obs. used      1977-02-19  
   last obs. used      2019-02-04  
   planetary ephem.      DE431  
   SB-pert. ephem.      SB431-N16  
   condition code      0  
   norm. resid. RMS      .58328  
   source      ORB  
   producer      Otto Matic  
   solution date      2019-Jul-13 01:29:57  

Additional Information
 Earth MOID = 1.00228 au 
 Jupiter MOID = 2.13092 au 
 T_jup = 3.489 
[ show covariance matrix ]

Ephemeris | Orbit Diagram | Orbital Elements | Mission Design | Physical Parameters | Discovery Circumstances ]

Physical Parameter Table
Parameter Symbol Value Units Sigma Reference Notes
absolute magnitude H 15.7   n/a MPO290700  
diameter diameter 4.739 km 0.205 urn:nasa:pds:neowise_diameters_albedos::2.0[mainbelt] (http://adsabs.harvard.edu/abs/2011ApJ...741...68M)  
geometric albedo albedo 0.065   0.019 urn:nasa:pds:neowise_diameters_albedos::2.0[mainbelt] (http://adsabs.harvard.edu/abs/2011ApJ...741...68M)  

32109 (2000 KQ70)          Discovered 2000-May-28 by LONEOS at Anderson Mesa
Reference: 20011130/Numbers.arcLast Updated: 2004-04-19

Alternate Designations
 2000 KQ70 = 1977 DK7 = 1996 FS 
Ephemeris | Orbit Diagram | Orbital Elements | Mission Design | Physical Parameters | Discovery Circumstances ]
ABOUT SSD CREDITS/AWARDS PRIVACY/COPYRIGHT GLOSSARY LINKS
FirstGov
(server date/time)  
NASA Home Page
Site Manager:   Ryan S. Park
Webmaster  Alan B. Chamberlin